This demonstration page uses our WeatherBlox Daily Observations layout. Learn more.

38.88101, -77.10428

Hourly Observations for March 10, 2016

Temp ( °F °C ) Dew Point ( °F °C ) Humidity (%) Winds ( mph kmh ) Pressure ( in mb ) Visibility ( mi km ) Precip ( " mm )
12:52 am 00:52 Mostly Cloudy 61 16.1 49 9.4 65 65 S 13 20 30.06 1018 10 16.09344 0 0
1:52 am 01:52 Partly Cloudy 58 14.4 49 9.4 72 72 S 8 13 30.09 1019 10 16.09344 0 0
2:52 am 02:52 Mostly Cloudy 60 15.6 50 10 70 70 S 12 19 30.06 1018 10 16.09344 0 0
3:52 am 03:52 Mostly Cloudy 61 16.1 50 10 67 67 S 12 19 30.06 1018 10 16.09344 0 0
4:52 am 04:52 Cloudy 57 13.9 50 10 78 78 S 9 15 30.09 1019 10 16.09344 0 0
5:52 am 05:52 Mostly Cloudy 58 14.4 51 10.6 78 78 S 9 15 30.09 1019 10 16.09344 0 0
6:52 am 06:52 Mostly Cloudy 57 13.9 51 10.6 81 81 S 8 13 30.09 1019 10 16.09344 0 0
7:52 am 07:52 Cloudy 60 15.6 52 11.1 75 75 S 9 15 30.09 1019 10 16.09344 0 0
8:52 am 08:52 Cloudy 65 18.3 54 12.2 68 68 S 8 13 30.09 1019 10 16.09344 0 0
9:52 am 09:52 Cloudy 70 21.1 54 12.2 57 57 SSW 9 15 30.12 1020 10 16.09344 0 0
10:52 am 10:52 Cloudy 69 20.6 54 12.2 59 59 S 13 20 30.09 1019 10 16.09344 0 0
11:52 am 11:52 Cloudy 70 21.1 54 12.2 57 57 S 13 20 30.06 1018 10 16.09344 0 0
12:52 pm 12:52 Cloudy 70 21.1 54 12.2 57 57 S 10 17 30.03 1017 10 16.09344 0 0
1:52 pm 13:52 Cloudy 76 24.4 55 12.8 48 48 SSW 15 24 30 1016 10 16.09344 0 0
2:52 pm 14:52 Cloudy 76 24.4 54 12.2 47 47 S 15 24 29.97 1015 10 16.09344 0 0
3:52 pm 15:52 Mostly Cloudy 78 25.6 54 12.2 43 43 SSW 17 28 29.97 1015 10 16.09344 0 0
4:52 pm 16:52 Mostly Cloudy 76 24.4 55 12.8 48 48 S 20 31 29.94 1014 10 16.09344 0 0
5:52 pm 17:52 Mostly Cloudy 72 22.2 55 12.8 55 55 S 9 15 29.94 1014 10 16.09344 0 0
6:52 pm 18:52 Mostly Cloudy 71 21.7 54 12.2 55 55 S 10 17 29.94 1014 10 16.09344 0 0
7:52 pm 19:52 Mostly Cloudy 68 20 54 12.2 61 61 S 9 15 29.94 1014 10 16.09344 0 0
8:52 pm 20:52 Mostly Cloudy 72 22.2 54 12.2 53 53 SSW 14 22 29.94 1014 10 16.09344 0 0
9:52 pm 21:52 Partly Cloudy 72 22.2 54 12.2 53 53 SSW 14 22 29.94 1014 10 16.09344 0 0
10:52 pm 22:52 Clear 66 18.9 53 11.7 63 63 S 10 17 29.94 1014 10 16.09344 0 0
11:52 pm 23:52 Cloudy 70 21.1 55 12.8 59 59 SSW 12 19 29.94 1014 10 16.09344 0 0

Powered by AerisWeather